Погода в Зелёной

Украина / Ивано-Франковская область     48°31′34″N   24°22′48″E
темп.,
°C
ветер,
м/с
пор.,
м/с
влажн.,
%
обл.,
%
осадки,
мм/ч
давл.,
гПа
погр.,
м
27 ноября, сб
сб2723:00+2ююз21092100 0.2 994642
02:00+3юз51890100 0.9 9931346
05:00+4юз72088100 0.1 9921474
08:00+4юз41788100 0.1 9941432
11:00+4ююз31288100 0.1 9971173
14:00+4юз31283100 0.3 9981077
17:00+3юз41181100 0.0 1000971
20:00+3ююз3789100 0.0 1001352
28 ноября, вс
вс2823:00+1ююз359598 0.0 100396
02:00+2юз3490100 0.0 100263
05:00+2юз2288100 0.0 100133
08:00+4ююз2285100 0.1 100049
11:00+5ююз2388100 0.3 99990
14:00+6ю2785100 1.9 998475
17:00+3ююз2394100 0.0 99846
20:00+3ююз3391100 0.0 99756
29 ноября, пн
пн2923:00+3ююз3387100 0.0 99543
02:00+3юз328493 0.0 99337
05:00+4ююз2588100 0.3 990407
08:00+4зюз2988100 0.9 991917
11:00+3з297898 0.2 9941144
14:00+2з167283 0.2 995893
17:00+1ююз148153 0.0 997587
20:00−2ююз119676 0.2 100049
30 ноября, вт
вт3023:00−2юз129470 0.1 100187
02:00−3юз22906 0.2 100439
05:00−3юз1289100 0.0 100453
08:00−3з1185100 0.0 1006163
11:00−1сз1264100 0.0 1007863
14:000зсз245597 0.1 10061201
17:00−3юз227222 0.0 100846
20:00−3юз311726 0.0 1007879
1 декабря, ср
ср123:00−3юз91869100 0.0 10051033
02:00−2зюз132368100 0.1 10021095
05:00−2зюз91767100 0.1 1004917
08:00−2зюз41168100 0.1 1006730
11:000зюз5116369 0.0 10071186
14:00+1зюз51164100 0.1 10071137
17:00−2юз3681100 0.0 1008176
20:00−1юз5158199 0.0 1007762